Regional Weather Roundup
Issued by NWS State College, PA

Home | Current Version | Previous Version | Graphics & Text | Print | Product List | Glossary On
Versions: 1 2 3 4 5 6 7 8 9 10 11 12 13 14 15 16 17 18 19 20 21 22 23 24 25 26 27 28 29 30 31 32 33 34 35 36 37 38 39 40 41 42 43 44 45 46 47 48 49 50
000
ASUS41 KCTP 210803
RWRCTP

REGIONAL WEATHER ROUNDUP
NATIONAL WEATHER SERVICE STATE COLLEGE PA
400 AM EDT MON AUG 21 2017

Note: "fair" indicates few or no clouds below 12,000 feet with no
significant weather and/or obstructions to visibility.

* = STATION THAT DOES NOT REPORT PRECIPITATION /E.G. RAIN...SNOW...ETC/
    THUNDER OR FOG.

PAZ002>004-007>009-013>016-020>023-029>032-210900-
WESTERN PENNSYLVANIA

CITY           SKY/WX    TMP DP  RH WIND       PRES   REMARKS
ERIE           CLOUDY    73  59  61 S12       30.10F THUNDER
MEADVILLE      CLOUDY    71  59  65 CALM      30.16R
FRANKLIN*      CLOUDY    66  55  68 S6        30.18R
NEW CASTLE     FAIR      65  62  90 VRB3      30.16S
BEAVER COUNTY  NOT AVBL
BUTLER*        MOCLDY    63  61  93 CALM      30.18R
PITTSBURGH INT PTCLDY    68  63  84 CALM      30.16S
PITTSBURGH     MOCLDY    68  60  75 SE3       30.16S
INDIANA*       CLEAR     61  61 100 CALM      30.21S
LATROBE        MOCLDY    61  61 100 CALM      30.18S
WASHINGTON CO* PTCLDY    63  61  94 CALM      30.17S
$$

PAZ004>006-010>012-017>019-024>028-033>037-041-042-045-046-049>053-210900-
CENTRAL PENNSYLVANIA

CITY           SKY/WX    TMP DP  RH WIND       PRES   REMARKS
BRADFORD       MOCLDY    56  56 100 CALM      30.21S
DUBOIS         MOCLDY    61  55  81 E3        30.19S
CLEARFIELD     MOCLDY    58  56  93 CALM      30.21S
JOHNSTOWN      CLOUDY    66  61  84 SW5       30.23S
ALTOONA        CLOUDY    60  60 100 CALM      30.21S
STATE COLLEGE  MOCLDY    61  60  95 CALM      30.20F
WILLIAMSPORT   MOCLDY    63  62  97 CALM      30.17S
SELINSGROVE    CLEAR     60  60 100 CALM      30.19S FOG
FT INDIANTOWN  CLEAR     61  61 100 CALM      30.19S
CAPITAL CITY   CLEAR     65  61  87 CALM      30.18F
HARRISBURG     PTCLDY    67  65  93 E3        30.18S
YORK           CLEAR     62  62 100 CALM      30.19F
$$

PAZ038>040-043-044-047-048-054-055-060>062-067>071-210900-
EASTERN PENNSYLVANIA

CITY           SKY/WX    TMP DP  RH WIND       PRES   REMARKS
SCRANTON       PTCLDY    62  61  96 E3        30.20S
MOUNT POCONO     N/A     58  58 100 CALM      30.24R
ALLENTOWN      FOG       63  61  93 CALM      30.19R VSB 1
QUAKERTOWN*    SUNNY     61  61 100 CALM      30.20F
READING        PTCLDY    64  64 100 CALM      30.18F
LANCASTER      CLEAR     64  63  96 SE3       30.19S
COATESVILLE    SUNNY     66  63  88 CALM      30.21F
POTTSTOWN      CLOUDY    62  62 100 CALM      30.21S
BLUE BELL      PTCLDY    59  59 100 CALM      30.21S
DOYLESTOWN     CLEAR     65  63  93 CALM      30.19S
WILLOW GROVE   NOT AVBL
NORTH PHILA    CLEAR     68  63  84 CALM      30.20R
PHILADELPHIA   PTCLDY    70  64  81 CALM      30.19S
$$



USA.gov is the U.S. government's official web portal to all federal, state and local government web resources and services.